{"data":{"norad_id":58871,"intl_designator":"2024-019U","name":"STARLINK-31214","alt_names":[],"object_type":"PAYLOAD","status":"ACTIVE","operator":null,"country":"US","launch_date":"2024-01-29","launch_site_code":"AFETR","launch_vehicle":null,"mission":null,"orbit_class":"UNKNOWN","rcs_meters":null,"size_class":null,"mass_kg":null,"dimensions":null,"purposes":["comms"],"wikipedia_slug":null,"has_3d_model":false,"image_url":null,"decayed_at":null,"tle_current":{"epoch":"2026-05-25T02:47:52.725408Z","epoch_age_seconds":61045,"freshness":"FRESH","line1":"1 58871U 24019U   26145.11658247  .00007385  00000+0  27765-3 0  9999","line2":"2 58871  42.9998 177.0547 0001433 271.7700  88.2988 15.27575743130753","mean_motion":15.27575743,"eccentricity":0.0001433,"inclination_deg":42.9998,"raan_deg":177.0547,"arg_perigee_deg":271.77,"mean_anomaly_deg":88.2988,"bstar":0.00027765,"rev_number":13075,"period_min":94.26701141326,"perigee_km":482.07863326449,"apogee_km":484.04505285291,"semimajor_km":6861.1988430587,"source":"CELESTRAK","updated_at":"2026-05-25T13:38:18.779100Z"}}}